SHT8PZ EGPH-EGLL

Flight info

Callsign SHT8PZ
Flight time 1h 1m
Altitude 33000
Route GOSAM P600 FENIK L612 NAVSO DCT AKOMU DCT VAMEB DCT NUGRA
Aircraft A320/M-SDE3FGHIRWY/LB1

Departure

Time 2026-04-26 16:33
Airport Edinburgh Airport (EGPH)

Arrival

Time 2026-04-26 17:34
Airport London Heathrow Airport (EGLL)
Time Latitude Longitude Altitude Speed Heading
2026-04-26 15:59 55.94943 -3.36360 117 ft 0 kts 147°
2026-04-26 16:20 55.94945 -3.36362 116 ft 2 kts 147°
2026-04-26 16:21 55.94966 -3.36389 112 ft 4 kts 139°
2026-04-26 16:21 55.94984 -3.36423 112 ft 4 kts 120°
2026-04-26 16:21 55.94991 -3.36463 113 ft 4 kts 68°
2026-04-26 16:21 55.94989 -3.36472 112 ft 0 kts 59°
2026-04-26 16:28 55.94998 -3.36445 113 ft 5 kts 59°
2026-04-26 16:28 55.95011 -3.36406 115 ft 7 kts 57°
2026-04-26 16:28 55.95056 -3.36401 113 ft 8 kts 327°
2026-04-26 16:28 55.95061 -3.36506 112 ft 11 kts 241°
2026-04-26 16:29 55.95000 -3.36678 115 ft 14 kts 239°
2026-04-26 16:29 55.94943 -3.36845 114 ft 17 kts 238°
2026-04-26 16:29 55.94875 -3.37044 115 ft 20 kts 238°
2026-04-26 16:29 55.94799 -3.37273 113 ft 22 kts 239°
2026-04-26 16:30 55.94716 -3.37519 116 ft 22 kts 239°
2026-04-26 16:30 55.94662 -3.37675 112 ft 23 kts 238°
2026-04-26 16:30 55.94574 -3.37936 114 ft 26 kts 239°
2026-04-26 16:30 55.94477 -3.38224 112 ft 28 kts 239°
2026-04-26 16:31 55.94342 -3.38621 113 ft 22 kts 239°
2026-04-26 16:31 55.94288 -3.38776 115 ft 10 kts 239°
2026-04-26 16:31 55.94291 -3.38861 114 ft 11 kts 302°
2026-04-26 16:31 55.94391 -3.38964 114 ft 12 kts 347°
2026-04-26 16:32 55.94435 -3.38912 114 ft 13 kts 49°
2026-04-26 16:32 55.94485 -3.38765 113 ft 16 kts 57°
2026-04-26 16:32 55.94626 -3.38348 113 ft 81 kts 59°
2026-04-26 16:32 55.95056 -3.37083 112 ft 154 kts 59°
2026-04-26 16:33 55.95668 -3.35268 581 ft 180 kts 59°
2026-04-26 16:33 55.96458 -3.33529 1524 ft 183 kts 38°
2026-04-26 16:33 55.97503 -3.32031 2284 ft 202 kts 39°
2026-04-26 16:33 55.98905 -3.29797 3133 ft 208 kts 42°
2026-04-26 16:34 55.99655 -3.28637 3501 ft 213 kts 33°
2026-04-26 16:34 56.01069 -3.27969 3893 ft 224 kts 349°
2026-04-26 16:34 56.02473 -3.29202 4307 ft 236 kts 310°
2026-04-26 16:34 56.03264 -3.31822 4826 ft 249 kts 278°
2026-04-26 16:35 56.03171 -3.34937 5580 ft 254 kts 258°
2026-04-26 16:35 56.02745 -3.38030 6498 ft 258 kts 253°
2026-04-26 16:35 56.02234 -3.41149 7344 ft 263 kts 253°
2026-04-26 16:35 56.01742 -3.44263 8227 ft 265 kts 253°
2026-04-26 16:36 56.01260 -3.47443 9136 ft 266 kts 253°
2026-04-26 16:36 56.00787 -3.50654 10012 ft 268 kts 254°
2026-04-26 16:36 56.00315 -3.53923 10602 ft 280 kts 254°
2026-04-26 16:36 55.99811 -3.57438 10823 ft 303 kts 254°
2026-04-26 16:37 55.99269 -3.61218 11092 ft 322 kts 255°
2026-04-26 16:37 55.98712 -3.65133 11689 ft 329 kts 255°
2026-04-26 16:37 55.98145 -3.69113 12346 ft 333 kts 255°
2026-04-26 16:37 55.97576 -3.73086 12999 ft 336 kts 255°
2026-04-26 16:38 55.96989 -3.77151 13675 ft 340 kts 255°
2026-04-26 16:38 55.96397 -3.81250 14316 ft 344 kts 255°
2026-04-26 16:38 55.95795 -3.85402 14926 ft 347 kts 255°
2026-04-26 16:38 55.95184 -3.89583 15531 ft 349 kts 255°
2026-04-26 16:39 55.94570 -3.93782 16116 ft 352 kts 255°
2026-04-26 16:39 55.93879 -3.97985 16699 ft 354 kts 248°
2026-04-26 16:39 55.92703 -4.01855 17336 ft 357 kts 235°
2026-04-26 16:39 55.91008 -4.05129 17944 ft 363 kts 222°
2026-04-26 16:40 55.88969 -4.07727 18532 ft 367 kts 217°
2026-04-26 16:40 55.86854 -4.10308 19058 ft 370 kts 217°
2026-04-26 16:40 55.84729 -4.12901 19584 ft 373 kts 217°
2026-04-26 16:40 55.82579 -4.15520 20115 ft 375 kts 217°
2026-04-26 16:41 55.80415 -4.18154 20644 ft 378 kts 217°
2026-04-26 16:41 55.78238 -4.20806 21143 ft 381 kts 217°
2026-04-26 16:41 55.75912 -4.23137 21622 ft 388 kts 206°
2026-04-26 16:41 55.73319 -4.24597 22085 ft 396 kts 194°
2026-04-26 16:42 55.70592 -4.25035 22516 ft 404 kts 182°
2026-04-26 16:42 55.67774 -4.24365 22957 ft 414 kts 169°
2026-04-26 16:42 55.65038 -4.22677 23404 ft 421 kts 159°
2026-04-26 16:42 55.62421 -4.20253 23856 ft 427 kts 154°
2026-04-26 16:43 55.59823 -4.17680 24249 ft 429 kts 155°
2026-04-26 16:43 55.57213 -4.15119 24644 ft 430 kts 155°
2026-04-26 16:43 55.54585 -4.12556 25038 ft 432 kts 155°
2026-04-26 16:43 55.51943 -4.09992 25427 ft 434 kts 155°
2026-04-26 16:44 55.49326 -4.07457 25801 ft 436 kts 155°
2026-04-26 16:44 55.46670 -4.04884 26175 ft 437 kts 156°
2026-04-26 16:44 55.43995 -4.02298 26534 ft 439 kts 155°
2026-04-26 16:44 55.41312 -3.99699 26923 ft 441 kts 155°
2026-04-26 16:45 55.38619 -3.97085 27320 ft 443 kts 156°
2026-04-26 16:45 55.35916 -3.94465 27710 ft 444 kts 156°
2026-04-26 16:45 55.33207 -3.91851 28084 ft 446 kts 156°
2026-04-26 16:45 55.30479 -3.89227 28445 ft 448 kts 156°
2026-04-26 16:46 55.27740 -3.86598 28805 ft 449 kts 156°
2026-04-26 16:46 55.25033 -3.84001 29255 ft 449 kts 156°
2026-04-26 16:46 55.22296 -3.81380 29749 ft 447 kts 157°
2026-04-26 16:46 55.19556 -3.78850 30236 ft 445 kts 159°
2026-04-26 16:47 55.16794 -3.76427 30674 ft 443 kts 160°
2026-04-26 16:47 55.14025 -3.74078 31104 ft 441 kts 160°
2026-04-26 16:47 55.11262 -3.71773 31530 ft 441 kts 161°
2026-04-26 16:47 55.08495 -3.69465 31953 ft 440 kts 161°
2026-04-26 16:48 55.05735 -3.67145 32367 ft 440 kts 161°
2026-04-26 16:48 55.02981 -3.64810 32785 ft 440 kts 161°
2026-04-26 16:48 55.00268 -3.62494 33160 ft 440 kts 161°
2026-04-26 16:48 54.97518 -3.60138 33256 ft 444 kts 161°
2026-04-26 16:49 54.91940 -3.55375 33262 ft 447 kts 160°
2026-04-26 16:49 54.86351 -3.50632 33266 ft 447 kts 161°
2026-04-26 16:50 54.80750 -3.45906 33263 ft 447 kts 161°
2026-04-26 16:50 54.75147 -3.41194 33266 ft 447 kts 161°
2026-04-26 16:51 54.69586 -3.36529 33243 ft 448 kts 160°
2026-04-26 16:51 54.63980 -3.31828 33251 ft 448 kts 160°
2026-04-26 16:52 54.59310 -3.27927 33262 ft 449 kts 160°
2026-04-26 16:52 54.52742 -3.22468 33267 ft 449 kts 160°
2026-04-26 16:53 54.47150 -3.17825 33256 ft 450 kts 160°
2026-04-26 16:53 54.41517 -3.13157 33235 ft 450 kts 160°
2026-04-26 16:54 54.35885 -3.08502 33250 ft 450 kts 160°
2026-04-26 16:54 54.30243 -3.03870 33269 ft 449 kts 160°
2026-04-26 16:55 54.24635 -2.99285 33267 ft 449 kts 160°
2026-04-26 16:55 54.18992 -2.94682 33246 ft 449 kts 160°
2026-04-26 16:56 54.10474 -2.88118 33270 ft 446 kts 163°
2026-04-26 16:57 54.04750 -2.84070 33272 ft 445 kts 163°
2026-04-26 16:57 53.96104 -2.78695 33253 ft 441 kts 168°
2026-04-26 16:58 53.91199 -2.76076 33260 ft 441 kts 168°
2026-04-26 16:59 53.81452 -2.70917 33262 ft 441 kts 168°
2026-04-26 17:00 53.69725 -2.64788 33235 ft 441 kts 167°
2026-04-26 17:00 53.60964 -2.60200 33242 ft 442 kts 167°
2026-04-26 17:01 53.55089 -2.57128 33241 ft 442 kts 167°
2026-04-26 17:01 53.49203 -2.54075 33242 ft 443 kts 167°
2026-04-26 17:02 53.43335 -2.51044 33259 ft 444 kts 167°
2026-04-26 17:02 53.37430 -2.47995 33264 ft 445 kts 167°
2026-04-26 17:03 53.31515 -2.44945 33268 ft 445 kts 167°
2026-04-26 17:03 53.25604 -2.41914 33274 ft 445 kts 168°
2026-04-26 17:04 53.19682 -2.38891 33255 ft 445 kts 167°
2026-04-26 17:04 53.13803 -2.35890 33261 ft 445 kts 167°
2026-04-26 17:05 53.07888 -2.32880 33262 ft 445 kts 167°
2026-04-26 17:05 53.02065 -2.29320 33262 ft 451 kts 156°
2026-04-26 17:06 52.96715 -2.23793 33253 ft 454 kts 151°
2026-04-26 17:06 52.91380 -2.18194 33271 ft 454 kts 152°
2026-04-26 17:07 52.86074 -2.12668 33272 ft 453 kts 152°
2026-04-26 17:07 52.80737 -2.07115 33273 ft 454 kts 152°
2026-04-26 17:08 52.75394 -2.01571 33276 ft 453 kts 152°
2026-04-26 17:08 52.70050 -1.96024 33256 ft 453 kts 151°
2026-04-26 17:09 52.65617 -1.91449 32691 ft 454 kts 151°
2026-04-26 17:09 52.62001 -1.87728 31025 ft 469 kts 151°
2026-04-26 17:09 52.59216 -1.84865 29992 ft 474 kts 151°
2026-04-26 17:10 52.56424 -1.81994 28967 ft 469 kts 151°
2026-04-26 17:10 52.53673 -1.79166 27729 ft 462 kts 151°
2026-04-26 17:10 52.51016 -1.76434 27255 ft 439 kts 151°
2026-04-26 17:10 52.48485 -1.73834 26629 ft 422 kts 151°
2026-04-26 17:11 52.46035 -1.71326 26066 ft 410 kts 151°
2026-04-26 17:11 52.43618 -1.68865 25463 ft 409 kts 151°
2026-04-26 17:11 52.41198 -1.66413 24860 ft 408 kts 151°
2026-04-26 17:11 52.38811 -1.63993 24293 ft 408 kts 151°
2026-04-26 17:12 52.33996 -1.59099 23053 ft 406 kts 150°
2026-04-26 17:12 52.31611 -1.56677 22495 ft 402 kts 150°
2026-04-26 17:13 52.26891 -1.51899 21416 ft 396 kts 150°
2026-04-26 17:13 52.24555 -1.49541 20917 ft 392 kts 150°
2026-04-26 17:13 52.20129 -1.44479 19987 ft 388 kts 141°
2026-04-26 17:14 52.18090 -1.41610 19605 ft 395 kts 141°
2026-04-26 17:14 52.13928 -1.35796 18808 ft 392 kts 141°
2026-04-26 17:14 52.11866 -1.32926 18384 ft 389 kts 141°
2026-04-26 17:15 52.07767 -1.27237 17580 ft 385 kts 141°
2026-04-26 17:15 52.05748 -1.24441 17240 ft 377 kts 141°
2026-04-26 17:15 52.03790 -1.21731 17096 ft 362 kts 141°
2026-04-26 17:16 52.01929 -1.19150 16940 ft 340 kts 141°
2026-04-26 17:16 52.00200 -1.16750 16619 ft 325 kts 142°
2026-04-26 17:16 51.98497 -1.14402 16057 ft 318 kts 142°
2026-04-26 17:16 51.96824 -1.12099 15508 ft 314 kts 142°
2026-04-26 17:17 51.95164 -1.09816 15129 ft 313 kts 142°
2026-04-26 17:17 51.93508 -1.07538 14701 ft 311 kts 141°
2026-04-26 17:17 51.91863 -1.05269 14294 ft 309 kts 141°
2026-04-26 17:17 51.90231 -1.03021 13876 ft 309 kts 141°
2026-04-26 17:18 51.88591 -1.00765 13445 ft 309 kts 141°
2026-04-26 17:18 51.86953 -0.98517 13046 ft 308 kts 141°
2026-04-26 17:18 51.85411 -0.96108 12636 ft 309 kts 129°
2026-04-26 17:18 51.84334 -0.93092 12238 ft 310 kts 117°
2026-04-26 17:19 51.82464 -0.86921 11543 ft 306 kts 117°
2026-04-26 17:19 51.81516 -0.83829 11234 ft 304 kts 117°
2026-04-26 17:19 51.80584 -0.80797 10985 ft 299 kts 117°
2026-04-26 17:20 51.79662 -0.77799 10685 ft 297 kts 117°
2026-04-26 17:20 51.79044 -0.75792 10479 ft 295 kts 117°
2026-04-26 17:20 51.77841 -0.71891 9725 ft 291 kts 117°
2026-04-26 17:20 51.76943 -0.68974 9139 ft 289 kts 117°
2026-04-26 17:21 51.76053 -0.66088 8703 ft 287 kts 117°
2026-04-26 17:21 51.75167 -0.63211 8322 ft 285 kts 117°
2026-04-26 17:21 51.74286 -0.60350 7947 ft 283 kts 117°
2026-04-26 17:21 51.73333 -0.57576 7573 ft 283 kts 129°
2026-04-26 17:22 51.71859 -0.55611 7311 ft 277 kts 155°
2026-04-26 17:22 51.70021 -0.54896 7272 ft 273 kts 182°
2026-04-26 17:22 51.68194 -0.55631 7276 ft 273 kts 209°
2026-04-26 17:22 51.66753 -0.57603 7280 ft 274 kts 229°
2026-04-26 17:23 51.65527 -0.59949 7275 ft 275 kts 231°
2026-04-26 17:23 51.64324 -0.62330 7272 ft 270 kts 231°
2026-04-26 17:23 51.63172 -0.64621 7271 ft 256 kts 231°
2026-04-26 17:23 51.62080 -0.66797 7272 ft 244 kts 231°
2026-04-26 17:24 51.61020 -0.68908 7275 ft 242 kts 231°
2026-04-26 17:24 51.59970 -0.71003 7070 ft 240 kts 231°
2026-04-26 17:24 51.59084 -0.73217 6782 ft 239 kts 251°
2026-04-26 17:24 51.58700 -0.75821 6455 ft 240 kts 260°
2026-04-26 17:25 51.58433 -0.78459 6141 ft 239 kts 261°
2026-04-26 17:25 51.58184 -0.81099 5853 ft 238 kts 261°
2026-04-26 17:25 51.57940 -0.83726 5568 ft 237 kts 261°
2026-04-26 17:25 51.57699 -0.86342 5279 ft 236 kts 261°
2026-04-26 17:26 51.57465 -0.88937 4984 ft 234 kts 261°
2026-04-26 17:26 51.57228 -0.91525 4669 ft 233 kts 258°
2026-04-26 17:26 51.56623 -0.93857 4530 ft 223 kts 229°
2026-04-26 17:26 51.55413 -0.95196 4401 ft 212 kts 194°
2026-04-26 17:27 51.54005 -0.95522 4301 ft 198 kts 182°
2026-04-26 17:27 51.52667 -0.95601 4101 ft 189 kts 175°
2026-04-26 17:27 51.51486 -0.94842 4010 ft 186 kts 135°
2026-04-26 17:27 51.50692 -0.93210 4011 ft 187 kts 123°
2026-04-26 17:28 51.50000 -0.91438 4008 ft 188 kts 121°
2026-04-26 17:28 51.49323 -0.89650 4019 ft 187 kts 121°
2026-04-26 17:28 51.48652 -0.87867 4012 ft 187 kts 121°
2026-04-26 17:28 51.47981 -0.86084 4010 ft 186 kts 120°
2026-04-26 17:29 51.47565 -0.84166 4012 ft 187 kts 96°
2026-04-26 17:29 51.47550 -0.82755 4014 ft 188 kts 90°
2026-04-26 17:29 51.47575 -0.79982 3887 ft 188 kts 89°
2026-04-26 17:29 51.47591 -0.77898 3674 ft 186 kts 90°
2026-04-26 17:30 51.47605 -0.75822 3436 ft 185 kts 90°
2026-04-26 17:30 51.47618 -0.73765 3185 ft 185 kts 90°
2026-04-26 17:30 51.47631 -0.71709 2937 ft 184 kts 90°
2026-04-26 17:30 51.47643 -0.69659 2692 ft 183 kts 90°
2026-04-26 17:31 51.47655 -0.67626 2445 ft 182 kts 90°
2026-04-26 17:31 51.47666 -0.65602 2196 ft 180 kts 90°
2026-04-26 17:31 51.47677 -0.63597 1957 ft 177 kts 90°
2026-04-26 17:31 51.47687 -0.61711 1721 ft 167 kts 89°
2026-04-26 17:32 51.47697 -0.59887 1524 ft 162 kts 90°
2026-04-26 17:32 51.47705 -0.58106 1296 ft 156 kts 90°
2026-04-26 17:32 51.47713 -0.56461 1085 ft 141 kts 89°
2026-04-26 17:32 51.47721 -0.54911 899 ft 137 kts 90°
2026-04-26 17:33 51.47727 -0.53401 728 ft 135 kts 90°
2026-04-26 17:33 51.47734 -0.51910 529 ft 133 kts 90°
2026-04-26 17:33 51.47739 -0.50433 368 ft 132 kts 90°
2026-04-26 17:34 51.47756 -0.47520 96 ft 126 kts 90°
2026-04-26 17:34 51.47757 -0.46364 91 ft 83 kts 90°
2026-04-26 17:34 51.47760 -0.45617 88 ft 46 kts 90°
2026-04-26 17:34 51.47760 -0.45307 86 ft 19 kts 90°
2026-04-26 17:35 51.47704 -0.45181 88 ft 15 kts 165°
2026-04-26 17:35 51.47654 -0.45174 88 ft 2 kts 179°
2026-04-26 17:35 51.47637 -0.45174 86 ft 3 kts 180°
2026-04-26 17:35 51.47610 -0.45183 86 ft 5 kts 202°
2026-04-26 17:36 51.47595 -0.45245 91 ft 7 kts 275°
2026-04-26 17:36 51.47599 -0.45341 86 ft 10 kts 269°
2026-04-26 17:36 51.47597 -0.45463 86 ft 12 kts 270°
2026-04-26 17:36 51.47597 -0.45601 86 ft 10 kts 269°
2026-04-26 17:37 51.47596 -0.45689 86 ft 7 kts 269°
2026-04-26 17:37 51.47596 -0.45779 89 ft 9 kts 269°
2026-04-26 17:37 51.47595 -0.45896 88 ft 12 kts 269°
2026-04-26 17:38 51.47595 -0.46198 86 ft 15 kts 269°
2026-04-26 17:38 51.47593 -0.46372 86 ft 17 kts 270°
2026-04-26 17:38 51.47593 -0.46573 86 ft 19 kts 270°
2026-04-26 17:38 51.47590 -0.46798 86 ft 21 kts 264°
2026-04-26 17:39 51.47583 -0.47034 90 ft 20 kts 269°
2026-04-26 17:39 51.47582 -0.47268 90 ft 22 kts 270°
2026-04-26 17:39 51.47581 -0.47531 88 ft 24 kts 270°
2026-04-26 17:39 51.47581 -0.47813 88 ft 27 kts 270°
2026-04-26 17:40 51.47579 -0.48119 88 ft 28 kts 269°
2026-04-26 17:40 51.47578 -0.48330 86 ft 24 kts 270°
2026-04-26 17:40 51.47577 -0.48653 86 ft 22 kts 270°
2026-04-26 17:40 51.47577 -0.48853 86 ft 13 kts 270°
2026-04-26 17:41 51.47551 -0.48962 87 ft 11 kts 187°
2026-04-26 17:41 51.47470 -0.48954 88 ft 11 kts 180°
2026-04-26 17:41 51.47431 -0.48953 86 ft 3 kts 179°
2026-04-26 17:41 51.47420 -0.48953 87 ft 1 kts 179°
2026-04-26 17:42 51.47417 -0.48953 88 ft 0 kts 179°